Regional Weather Roundup
Issued by NWS

Home | Current Version | Previous Version | Graphics & Text | Print | Product List | Glossary On
Versions: 1 2 3 4 5 6 7 8 9 10 11 12 13 14 15 16 17 18 19 20 21 22 23 24 25 26 27 28 29 30 31 32 33 34 35 36 37 38 39 40 41 42 43 44 45 46 47 48 49 50
000
ASUS45 KCYS 271010
RWRWY

WYOMING REGIONAL WEATHER ROUNDUP
NATIONAL WEATHER SERVICE CHEYENNE WY
400 AM MDT FRI MAR 27 2015

NOTE:  "FAIR" INDICATES FEW OR NO CLOUDS BELOW 12,000 FEET
WITH NO SIGNIFICANT WEATHER AND/OR OBSTRUCTIONS TO VISIBILITY.

WYZ001-271100-
YELLOWSTONE NATIONAL PARK

CITY           SKY/WX    TMP DP  RH WIND       PRES   REMARKS
LK YELLOWSTONE   N/A     24  22  91 CALM      30.36F
W YELLOWSTONE  NOT AVBL

$$
WYZ002>013-054>058-071-098>099-271100-
NORTHERN WYOMING

CITY           SKY/WX    TMP DP  RH WIND       PRES   REMARKS
JACKSON        FAIR      28  28 100 NE6       30.34S WCI  22
CODY           FAIR      54  30  40 W10G21    30.14F
GREYBULL       FAIR      40  32  73 SE5       30.13S
WORLAND        FAIR      37  29  72 S9        30.13F WCI  30
SHERIDAN       CLOUDY    48  36  63 W3        30.11S
BUFFALO        FAIR      42  34  73 SW6       30.12S
GILLETTE       MOCLDY    45  39  79 W13       30.08S
HULETT         CLOUDY    41  36  81 SW16      30.07F
NEWCASTLE      FAIR      36  34  93 CALM      30.12F

$$
WYZ014>020-022>026-101>103-271100-
CENTRAL WYOMING

CITY           SKY/WX    TMP DP  RH WIND       PRES   REMARKS
BIG PINEY      FAIR      33  27  78 N12       30.31F WCI  24
PINEDALE       PTSUNNY   32  28  86 W13       30.32S WCI  22
DUBOIS         FAIR      39  28  65 W20       30.28S WCI  30
LANDER         FAIR      42  25  50 N6        30.17F
RIVERTON       FAIR      47  30  51 W16       30.18R
CASPER         CLOUDY    46  31  55 W7        30.16S
DOUGLAS        CLOUDY    50  31  48 NW15G22   30.13S

$$
WYZ021-027>030-104>119-271100-
SOUTHERN WYOMING

CITY           SKY/WX    TMP DP  RH WIND       PRES   REMARKS
EVANSTON       FAIR      33  25  72 SW8       30.37F WCI  26
KEMMERER       FAIR      32  30  93 W5        30.36S WCI  27
FORT BRIDGER   FAIR      39  28  64 W12       30.38S WCI  32
ROCK SPRINGS   FAIR      38  28  67 W21       30.30F WCI  28
DIXON          FAIR      30  27  88 CALM      30.35S
RAWLINS        FAIR      35  27  72 SW6       30.26F WCI  30
SARATOGA       FAIR      36  28  75 SW7       30.28S WCI  30
LARAMIE        CLOUDY    36  27  69 W7        30.21F WCI  30
CHEYENNE       CLOUDY    48  28  46 W14G21    30.14F
TORRINGTON     CLOUDY    39  31  72 E9        30.14R WCI  33
PINE BLUFFS    CLOUDY    41  30  65 SE5       30.14R

$$



USA.gov is the U.S. government's official web portal to all federal, state and local government web resources and services.